Weather History for KI39 - September, 2013

Change the Weather History Date:

Friday, September 20, 2013

  Actual Average (KLOZ) Record (KLOZ)
Temperature  
Mean Temperature 75 °F 67 °F  
Max Temperature 84 °F 78 °F 92 °F (1955)
Min Temperature 66 °F 55 °F 40 °F (1956)
Degree Days  
Heating Degree Days 0 2  
Month to date heating degree days 13  
Since 1 July heating degree days 14  
Cooling Degree Days 10 4  
Month to date cooling degree days 117  
Year to date cooling degree days 1141  
Growing Degree Days 25 (Base 50)    
Moisture  
Dew Point 64 °F    
Average Humidity 71    
Maximum Humidity 88    
Minimum Humidity 51    
Precipitation  
Precipitation 0.00 in 0.11 in 1.62 in (1958)
Month to date precipitation 2.24  
Year to date precipitation 34.92  
Sea Level Pressure  
Sea Level Pressure 29.98 in    
Wind  
Wind Speed 7 mph (SSW)    
Max Wind Speed 13 mph    
Max Gust Speed 17 mph    
Visibility 10 miles    
Events      
T = Trace of Precipitation, MM = Missing Value Source: NWS Daily Summary

Daily Weather History Graph

Daily Weather History Graph

Search for Another Location

Airport or City:

Trip Planner

Search our weather history database for the weather conditions in past years. The results will help you decide how hot, cold, wet, or windy it might be!

Date:

Astronomy

Sep. 20, 2013 Rise Set
Actual Time 7:23 AM EDT 7:37 PM EDT
Civil Twilight 6:57 AM EDT 8:03 PM EDT
Nautical Twilight 6:26 AM EDT 8:33 PM EDT
Astronomical Twilight 5:55 AM EDT 9:04 PM EDT
Moon 8:13 PM EDT (9/20) 8:35 AM EDT (9/20)
Length of Visible Light 13h 05m
Length of Day
12h 13m
Full, 98% of the Moon is Illuminated
Sep 20
Full
Sep 26
Last Quarter
Oct 4
New
Oct 11
First Quarter
Oct 18
Full

Hourly Weather History & Observations

Time (EDT) Temp. Heat Index Dew Point Humidity Pressure Visibility Wind Dir Wind Speed Gust Speed Precip Events Conditions
12:15 AM 69.8 °F - 66.2 °F 88% 30.06 in 7.0 mi SSW 5.8 mph - N/A   Clear
12:35 AM 69.8 °F - 66.2 °F 88% 30.06 in 10.0 mi SSW 5.8 mph - N/A   Clear
12:55 AM 69.8 °F - 66.2 °F 88% 30.05 in 10.0 mi South 8.1 mph - N/A   Clear
1:15 AM 69.8 °F - 64.4 °F 83% 30.05 in 10.0 mi South 6.9 mph - N/A   Clear
1:35 AM 69.8 °F - 64.4 °F 83% 30.05 in 10.0 mi SSE 3.5 mph - N/A   Clear
1:55 AM 69.8 °F - 64.4 °F 83% 30.05 in 10.0 mi South 4.6 mph - N/A   Clear
2:15 AM 69.8 °F - 64.4 °F 83% 30.05 in 10.0 mi South 8.1 mph - N/A   Clear
2:35 AM 69.8 °F - 64.4 °F 83% 30.05 in 10.0 mi South 9.2 mph - N/A   Clear
2:55 AM 69.8 °F - 64.4 °F 83% 30.05 in 10.0 mi SSW 5.8 mph - N/A   Clear
3:15 AM 69.8 °F - 64.4 °F 83% 30.05 in 10.0 mi SSW 4.6 mph - N/A   Clear
3:35 AM 68.0 °F - 64.4 °F 88% 30.05 in 10.0 mi SSW 3.5 mph - N/A   Clear
3:55 AM 68.0 °F - 64.4 °F 88% 30.05 in 10.0 mi SSW 4.6 mph - N/A   Clear
4:15 AM 68.0 °F - 64.4 °F 88% 30.05 in 10.0 mi SSW 4.6 mph - N/A   Clear
4:35 AM 68.0 °F - 64.4 °F 88% 30.04 in 10.0 mi SSW 4.6 mph - N/A   Clear
4:55 AM 68.0 °F - 64.4 °F 88% 30.04 in 10.0 mi SSW 6.9 mph - N/A   Clear
5:15 AM 68.0 °F - 62.6 °F 83% 30.04 in 10.0 mi SSW 6.9 mph - N/A   Clear
5:35 AM 68.0 °F - 62.6 °F 83% 30.03 in 10.0 mi SSW 6.9 mph - N/A   Clear
5:55 AM 68.0 °F - 62.6 °F 83% 30.03 in 10.0 mi SSW 6.9 mph - N/A   Clear
6:15 AM 68.0 °F - 62.6 °F 83% 30.03 in 10.0 mi SSW 6.9 mph - N/A   Clear
6:35 AM 68.0 °F - 62.6 °F 83% 30.03 in 10.0 mi SSW 4.6 mph - N/A   Clear
6:55 AM 68.0 °F - 62.6 °F 83% 30.03 in 10.0 mi South 5.8 mph - N/A   Clear
7:15 AM 68.0 °F - 62.6 °F 83% 30.04 in 10.0 mi South 6.9 mph - N/A   Clear
7:35 AM 66.2 °F - 62.6 °F 88% 30.04 in 10.0 mi South 5.8 mph - N/A   Clear
7:55 AM 68.0 °F - 62.6 °F 83% 30.03 in 10.0 mi South 4.6 mph - N/A   Clear
8:15 AM 68.0 °F - 62.6 °F 83% 30.04 in 10.0 mi South 4.6 mph - N/A   Clear
8:35 AM 69.8 °F - 62.6 °F 78% 30.04 in 10.0 mi South 6.9 mph - N/A   Clear
8:55 AM 71.6 °F - 62.6 °F 73% 30.04 in 10.0 mi SSW 6.9 mph - N/A   Clear
9:15 AM 71.6 °F - 62.6 °F 73% 30.04 in 10.0 mi SSW 6.9 mph - N/A   Clear
9:35 AM 71.6 °F - 64.4 °F 78% 30.04 in 10.0 mi SSW 8.1 mph - N/A   Clear
9:55 AM 73.4 °F - 64.4 °F 73% 30.05 in 10.0 mi SW 8.1 mph - N/A   Clear
10:15 AM 73.4 °F - 64.4 °F 73% 30.05 in 10.0 mi SW 8.1 mph - N/A   Clear
10:35 AM 75.2 °F - 62.6 °F 65% 30.04 in 10.0 mi SW 8.1 mph - N/A   Clear
10:55 AM 75.2 °F - 62.6 °F 65% 30.04 in 10.0 mi SW 11.5 mph - N/A   Clear
11:15 AM 77.0 °F - 64.4 °F 65% 30.04 in 10.0 mi SW 10.4 mph - N/A   Clear
11:35 AM 77.0 °F - 64.4 °F 65% 30.03 in 10.0 mi SW 12.7 mph 16.1 mph N/A   Clear
11:55 AM 78.8 °F - 64.4 °F 61% 30.03 in 10.0 mi SW 10.4 mph - N/A   Clear
12:15 PM 78.8 °F - 64.4 °F 61% 30.02 in 10.0 mi SW 8.1 mph - N/A   Clear
12:35 PM 80.6 °F 82.3 °F 64.4 °F 58% 30.01 in 10.0 mi SSW 11.5 mph - N/A   Clear
12:55 PM 80.6 °F 82.3 °F 64.4 °F 58% 30.01 in 10.0 mi WSW 6.9 mph - N/A   Scattered Clouds
1:15 PM 82.4 °F 83.9 °F 64.4 °F 54% 30.00 in 10.0 mi SW 12.7 mph 16.1 mph N/A   Mostly Cloudy
1:35 PM 80.6 °F 81.8 °F 62.6 °F 54% 29.99 in 10.0 mi SW 11.5 mph - N/A   Scattered Clouds
1:55 PM 80.6 °F 82.3 °F 64.4 °F 58% 29.99 in 10.0 mi WSW 9.2 mph - N/A   Scattered Clouds
2:15 PM 82.4 °F 83.9 °F 64.4 °F 54% 29.97 in 10.0 mi SW 6.9 mph 16.1 mph N/A   Mostly Cloudy
2:35 PM 84.2 °F 85.6 °F 64.4 °F 51% 29.96 in 10.0 mi SW 6.9 mph 17.3 mph N/A   Mostly Cloudy
2:55 PM 80.6 °F 81.8 °F 62.6 °F 54% 29.95 in 10.0 mi SW 6.9 mph - N/A   Mostly Cloudy
3:15 PM 82.4 °F 83.4 °F 62.6 °F 51% 29.94 in 7.0 mi SW 9.2 mph - N/A   Mostly Cloudy
3:35 PM 80.6 °F 82.3 °F 64.4 °F 58% 29.94 in 7.0 mi SW 10.4 mph - N/A   Mostly Cloudy
3:55 PM 82.4 °F 83.9 °F 64.4 °F 54% 29.93 in 10.0 mi South 8.1 mph - N/A   Overcast
4:15 PM 82.4 °F 83.4 °F 62.6 °F 51% 29.92 in 10.0 mi SSW 8.1 mph - N/A   Mostly Cloudy
4:35 PM 80.6 °F 82.3 °F 64.4 °F 58% 29.91 in 10.0 mi SW 8.1 mph - N/A   Overcast
4:55 PM 80.6 °F 81.8 °F 62.6 °F 54% 29.91 in 10.0 mi SW 8.1 mph - N/A   Scattered Clouds
5:15 PM 82.4 °F 83.4 °F 62.6 °F 51% 29.90 in 10.0 mi South 9.2 mph - N/A   Scattered Clouds
5:35 PM 80.6 °F 81.8 °F 62.6 °F 54% 29.91 in 10.0 mi SSW 9.2 mph - N/A   Scattered Clouds
5:55 PM 80.6 °F 81.8 °F 62.6 °F 54% 29.90 in 10.0 mi SSW 9.2 mph - N/A   Clear
6:15 PM 80.6 °F 81.8 °F 62.6 °F 54% 29.89 in 5.0 mi South 8.1 mph - N/A   Clear
6:35 PM 78.8 °F - 62.6 °F 57% 29.89 in 10.0 mi South 4.6 mph - N/A   Clear
6:55 PM 78.8 °F - 64.4 °F 61% 29.89 in 10.0 mi South 4.6 mph - N/A   Clear
7:15 PM 77.0 °F - 64.4 °F 65% 29.89 in 10.0 mi South 3.5 mph - N/A   Clear
7:35 PM 75.2 °F - 64.4 °F 69% 29.88 in 10.0 mi SSE 4.6 mph - N/A   Clear
7:55 PM 75.2 °F - 64.4 °F 69% 29.88 in 10.0 mi SSE 5.8 mph - N/A   Clear
8:15 PM 75.2 °F - 64.4 °F 69% 29.88 in 10.0 mi SSE 5.8 mph - N/A   Clear
8:35 PM 75.2 °F - 64.4 °F 69% 29.88 in 10.0 mi SSE 4.6 mph - N/A   Clear
8:55 PM 73.4 °F - 64.4 °F 73% 29.88 in 10.0 mi SSE 4.6 mph - N/A   Clear
9:15 PM 73.4 °F - 64.4 °F 73% 29.88 in 10.0 mi SSE 3.5 mph - N/A   Clear
9:35 PM 73.4 °F - 64.4 °F 73% 29.88 in 10.0 mi South 4.6 mph - N/A   Clear
9:55 PM 73.4 °F - 64.4 °F 73% 29.87 in 10.0 mi South 5.8 mph - N/A   Clear
10:15 PM 75.2 °F - 64.4 °F 69% 29.87 in 10.0 mi South 6.9 mph - N/A   Clear
10:35 PM 75.2 °F - 64.4 °F 69% 29.86 in 10.0 mi South 6.9 mph - N/A   Clear
10:55 PM 73.4 °F - 64.4 °F 73% 29.86 in 10.0 mi South 5.8 mph - N/A   Scattered Clouds
11:15 PM 73.4 °F - 64.4 °F 73% 29.86 in 10.0 mi SSW 6.9 mph - N/A   Mostly Cloudy
11:35 PM 73.4 °F - 64.4 °F 73% 29.86 in 10.0 mi SSW 5.8 mph - N/A   Overcast
11:55 PM 73.4 °F - 62.6 °F 69% 29.86 in 10.0 mi SSW 5.8 mph - N/A   Overcast